| time (UTC) | temp F | wind direction | speed knots | gust knots | rain 1hr in | rain 24hr in | rain mn in | humidity % | barometer mb |
| 20260507073047 | 63 | 182 | 2.6 | 11.3 | 0.00 | 0.00 | 0.00 | 82 | 1013.2 |
| 20260507071512 | 63 | 179 | 3.5 | 9.6 | 0.00 | 0.00 | 0.00 | 82 | 1013.0 |
| 20260507070140 | 63 | 150 | 4.3 | 9.6 | 0.00 | 0.00 | 0.00 | 82 | 1013.2 |
| 20260507064600 | 64 | 180 | 5.2 | 8.7 | 0.00 | 0.00 | 0.00 | 82 | 1013.1 |
| 20260507063019 | 63 | 174 | 2.6 | 7.0 | 0.00 | 0.00 | 0.00 | 82 | 1013.0 |
| 20260507061546 | 64 | 178 | 4.3 | 8.7 | 0.00 | 0.00 | 0.00 | 82 | 1012.9 |
| 20260507060002 | 64 | 150 | 4.3 | 9.6 | 0.00 | 0.00 | 0.00 | 82 | 1013.0 |
| 20260507054519 | 63 | 169 | 4.3 | 9.6 | 0.00 | 0.00 | 0.00 | 82 | 1012.3 |
| 20260507053033 | 64 | 172 | 4.3 | 10.4 | 0.00 | 0.00 | 0.00 | 82 | 1012.5 |
| 20260507051549 | 64 | 192 | 6.1 | 12.2 | 0.00 | 0.00 | 0.00 | 82 | 1012.6 |
| 20260507050010 | 64 | 161 | 3.5 | 11.3 | 0.00 | 0.00 | 0.00 | 82 | 1012.8 |
| 20260507044537 | 64 | 165 | 3.5 | 9.6 | 0.00 | 0.00 | 0.00 | 82 | 1012.8 |
| 20260507043105 | 64 | 152 | 3.5 | 8.7 | 0.00 | 0.00 | 0.00 | 83 | 1012.5 |
| 20260507041517 | 64 | 184 | 4.3 | 7.8 | 0.00 | 0.00 | 0.00 | 82 | 1012.1 |
| 20260507040037 | 64 | 115 | 4.3 | 8.7 | 0.00 | 0.00 | 0.00 | 82 | 1011.8 |
| 20260507034547 | 64 | 146 | 4.3 | 9.6 | 0.00 | 0.00 | 0.00 | 82 | 1011.8 |
| 20260507033120 | 64 | 106 | 2.6 | 8.7 | 0.00 | 0.00 | 0.00 | 82 | 1011.8 |
| 20260507031511 | 64 | 165 | 2.6 | 9.6 | 0.00 | 0.00 | 0.00 | 82 | 1011.6 |
| 20260507030101 | 64 | 193 | 4.3 | 12.2 | 0.00 | 0.00 | 0.00 | 82 | 1011.5 |
| 20260507024502 | 65 | 152 | 5.2 | 11.3 | 0.00 | 0.00 | 0.00 | 81 | 1011.2 |
| 20260507023020 | 65 | 184 | 3.5 | 8.7 | 0.00 | 0.00 | 0.00 | 81 | 1010.8 |
| 20260507021553 | 65 | 174 | 4.3 | 10.4 | 0.00 | 0.00 | 0.00 | 81 | 1010.5 |
| 20260507020009 | 66 | 154 | 5.2 | 11.3 | 0.00 | 0.00 | 0.00 | 80 | 1010.5 |
| 20260507014523 | 66 | 169 | 4.3 | 11.3 | 0.00 | 0.00 | 0.00 | 79 | 1010.1 |
| 20260507013055 | 67 | 167 | 5.2 | 15.6 | 0.00 | 0.00 | 0.00 | 78 | 1009.7 |
| 20260507011528 | 68 | 223 | 3.5 | 10.4 | 0.00 | 0.00 | 0.00 | 78 | 1009.9 |
| 20260507010042 | 69 | 162 | 4.3 | 12.2 | 0.00 | 0.00 | 0.00 | 77 | 1009.4 |
| 20260507004553 | 70 | 163 | 4.3 | 11.3 | 0.00 | 0.00 | 0.00 | 77 | 1009.1 |
| 20260507003104 | 71 | 174 | 3.5 | 13.0 | 0.00 | 0.00 | 0.00 | 76 | 1008.9 |
| 20260507001515 | 72 | 141 | 5.2 | 13.9 | 0.00 | 0.00 | 0.00 | 75 | 1008.7 |
| 20260507000029 | 73 | 156 | 4.3 | 14.8 | 0.00 | 0.00 | 0.00 | 75 | 1008.2 |
| 20260506234608 | 75 | 184 | 5.2 | 14.8 | 0.00 | 0.00 | 0.00 | 74 | 1008.2 |
| 20260506233020 | 76 | 146 | 5.2 | 13.9 | 0.00 | 0.00 | 0.00 | 74 | 1007.9 |
| 20260506231537 | 77 | 176 | 6.1 | 15.6 | 0.00 | 0.00 | 0.00 | 73 | 1007.7 |
| 20260506224507 | 81 | 156 | 4.3 | 9.6 | 0.00 | 0.00 | 0.00 | 74 | 1007.3 |
| 20260506223026 | 81 | 196 | 4.3 | 8.7 | 0.00 | 0.00 | 0.00 | 74 | 1007.0 |
| 20260506221542 | 82 | 178 | 3.5 | 8.7 | 0.00 | 0.00 | 0.00 | 75 | 1006.9 |
| 20260506220104 | 83 | 194 | 3.5 | 8.7 | 0.00 | 0.00 | 0.00 | 74 | 1006.9 |
| 20260506214522 | 83 | 149 | 4.3 | 10.4 | 0.00 | 0.00 | 0.00 | 74 | 1006.9 |
| 20260506213039 | 84 | 153 | 3.5 | 6.1 | 0.00 | 0.00 | 0.00 | 73 | 1006.7 |
| 20260506211608 | 84 | 137 | 0.9 | 4.3 | 0.00 | 0.00 | 0.00 | 69 | 1006.8 |
| 20260506210034 | 84 | 169 | 1.7 | 5.2 | 0.00 | 0.00 | 0.00 | 71 | 1007.0 |
| 20260506204549 | 84 | 124 | 2.6 | 6.1 | 0.00 | 0.00 | 0.00 | 69 | 1007.1 |
| 20260506203005 | 85 | 140 | 0.9 | 2.6 | 0.00 | 0.00 | 0.00 | 70 | 1007.3 |
| 20260506201520 | 85 | 176 | 1.7 | 4.3 | 0.00 | 0.00 | 0.00 | 69 | 1007.2 |
| 20260506200041 | 84 | 163 | 0.9 | 5.2 | 0.00 | 0.00 | 0.00 | 72 | 1007.3 |
| 20260506194557 | 84 | 160 | 1.7 | 5.2 | 0.00 | 0.00 | 0.00 | 72 | 1007.4 |
| 20260506193013 | 84 | 138 | 2.6 | 6.1 | 0.00 | 0.00 | 0.00 | 71 | 1007.6 |
| 20260506191534 | 83 | 164 | 0.9 | 4.3 | 0.00 | 0.00 | 0.00 | 75 | 1007.7 |
| 20260506190053 | 82 | 177 | 1.7 | 7.0 | 0.00 | 0.00 | 0.00 | 76 | 1007.9 |
| 20260506184506 | 82 | 185 | 0.9 | 7.0 | 0.00 | 0.00 | 0.00 | 77 | 1008.0 |
| 20260506183008 | 82 | 129 | 3.5 | 7.0 | 0.00 | 0.00 | 0.00 | 75 | 1008.3 |
| 20260506181527 | 83 | 158 | 1.7 | 4.3 | 0.00 | 0.00 | 0.00 | 77 | 1008.3 |
| 20260506180046 | 82 | 165 | 2.6 | 5.2 | 0.00 | 0.00 | 0.00 | 77 | 1008.6 |
| 20260506174600 | 81 | 162 | 0.9 | 5.2 | 0.00 | 0.00 | 0.00 | 81 | 1008.6 |
| 20260506173019 | 80 | 148 | 2.6 | 5.2 | 0.00 | 0.00 | 0.00 | 81 | 1008.8 |
| 20260506171529 | 79 | 151 | 2.6 | 6.1 | 0.00 | 0.00 | 0.00 | 83 | 1008.9 |
| 20260506170057 | 79 | 152 | 3.5 | 7.0 | 0.00 | 0.00 | 0.00 | 83 | 1008.9 |
| 20260506164515 | 79 | 185 | 2.6 | 6.1 | 0.00 | 0.00 | 0.00 | 85 | 1009.0 |
| 20260506163036 | 78 | 170 | 1.7 | 4.3 | 0.00 | 0.00 | 0.00 | 85 | 1009.0 |
| 20260506161642 | 78 | 136 | 0.9 | 2.6 | 0.00 | 0.00 | 0.00 | 85 | 1009.0 |
| 20260506160027 | 77 | 153 | 0.0 | 1.7 | 0.00 | 0.00 | 0.00 | 85 | 1008.7 |
| 20260506154550 | 77 | 141 | 0.0 | 0.9 | 0.00 | 0.00 | 0.00 | 86 | 1008.6 |
| 20260506153001 | 76 | 160 | 0.0 | 1.7 | 0.00 | 0.00 | 0.00 | 86 | 1008.3 |
| 20260506151517 | 76 | 152 | 0.0 | 1.7 | 0.00 | 0.00 | 0.00 | 86 | 1008.2 |
| 20260506150036 | 76 | 165 | 0.9 | 2.6 | 0.00 | 0.00 | 0.00 | 87 | 1007.9 |
| 20260506144549 | 76 | 179 | 0.9 | 2.6 | 0.00 | 0.00 | 0.00 | 87 | 1007.8 |
| 20260506143003 | 75 | 181 | 0.9 | 2.6 | 0.00 | 0.00 | 0.00 | 87 | 1007.7 |
| 20260506141520 | 75 | 172 | 2.6 | 4.3 | 0.00 | 0.00 | 0.00 | 87 | 1007.6 |
| 20260506140036 | 74 | 169 | 1.7 | 6.1 | 0.00 | 0.00 | 0.00 | 87 | 1007.0 |
| 20260506134602 | 74 | 179 | 2.6 | 7.8 | 0.00 | 0.00 | 0.00 | 87 | 1006.9 |
| 20260506133028 | 74 | 129 | 1.7 | 5.2 | 0.00 | 0.00 | 0.00 | 87 | 1006.9 |
| 20260506131551 | 73 | 153 | 1.7 | 4.3 | 0.00 | 0.00 | 0.00 | 87 | 1006.9 |
| 20260506130011 | 73 | 129 | 1.7 | 3.5 | 0.00 | 0.00 | 0.00 | 87 | 1006.9 |
| 20260506124543 | 73 | 149 | 0.0 | 2.6 | 0.00 | 0.00 | 0.00 | 87 | 1006.9 |
| 20260506123009 | 73 | 165 | 0.0 | 2.6 | 0.00 | 0.00 | 0.00 | 87 | 1006.7 |
| 20260506121523 | 73 | 160 | 0.9 | 2.6 | 0.00 | 0.00 | 0.00 | 87 | 1006.7 |
| 20260506120043 | 73 | 167 | 0.0 | 1.7 | 0.00 | 0.00 | 0.00 | 87 | 1006.6 |
| 20260506114559 | 73 | 173 | 0.0 | 2.6 | 0.00 | 0.00 | 0.00 | 87 | 1006.7 |
| 20260506113026 | 73 | 130 | 0.0 | 1.7 | 0.00 | 0.00 | 0.00 | 87 | 1006.6 |
| 20260506111554 | 73 | 145 | 0.9 | 5.2 | 0.00 | 0.00 | 0.00 | 87 | 1006.4 |
| 20260506110103 | 73 | 152 | 2.6 | 6.1 | 0.00 | 0.00 | 0.00 | 87 | 1006.3 |
| 20260506104517 | 73 | 165 | 2.6 | 5.2 | 0.00 | 0.00 | 0.00 | 87 | 1006.3 |
| 20260506103044 | 73 | 159 | 1.7 | 3.5 | 0.00 | 0.00 | 0.00 | 87 | 1006.3 |
| 20260506101600 | 74 | 168 | 0.9 | 4.3 | 0.00 | 0.00 | 0.00 | 87 | 1006.3 |
| 20260506100006 | 74 | 169 | 1.7 | 5.2 | 0.00 | 0.00 | 0.00 | 87 | 1006.3 |
| 20260506094525 | 74 | 160 | 1.7 | 5.2 | 0.00 | 0.00 | 0.00 | 86 | 1006.2 |
| 20260506093047 | 75 | 171 | 2.6 | 6.1 | 0.00 | 0.00 | 0.00 | 86 | 1006.1 |
| 20260506091559 | 75 | 172 | 1.7 | 4.3 | 0.00 | 0.00 | 0.00 | 86 | 1006.3 |
| 20260506090037 | 75 | 179 | 1.7 | 5.2 | 0.00 | 0.00 | 0.00 | 86 | 1006.4 |
| 20260506084623 | 75 | 168 | 3.5 | 7.8 | 0.00 | 0.00 | 0.00 | 86 | 1006.5 |
| 20260506083018 | 75 | 200 | 1.7 | 4.3 | 0.00 | 0.00 | 0.00 | 86 | 1006.6 |
| 20260506081546 | 75 | 159 | 1.7 | 5.2 | 0.00 | 0.00 | 0.00 | 86 | 1006.4 |